Regional Weather Roundup
Issued by NWS

Home | Current Version | Previous Version | Text Only | Print | Product List | Glossary On
Versions: 1 2 3 4 5 6 7 8 9 10 11 12 13 14 15 16 17 18 19 20 21 22 23 24 25 26 27 28 29 30 31 32 33 34 35 36 37 38 39 40 41 42 43 44 45 46 47 48 49 50
000
ASUS43 KDTX 250110
RWRMI
MICHIGAN HOURLY REGIONAL WEATHER ROUNDUP
NATIONAL WEATHER SERVICE DETROIT/PONTIAC MI
900 PM EDT SAT OCT 24 2020

NOTE: "FAIR" INDICATES FEW OR NO CLOUDS BELOW 12,000 FEET WITH NO
SIGNIFICANT WEATHER AND/OR OBSTRUCTION TO VISIBILITY.

MIZ047>049-052>055-059>063-066>070-074>076-081>083-250200-
SOUTHEAST LOWER MICHIGAN

CITY           SKY/WX    TMP DP  RH WIND       PRES   REMARKS
ADRIAN         CLOUDY    41  33  73 CALM      30.22R
ALMA           MOCLDY    38  32  78 CALM      30.24S
ANN ARBOR      CLEAR     40  28  62 NE8       30.20S WCI  34
BAD AXE        MOCLDY    35  32  89 CALM      30.24R
CARO           PTCLDY    35  31  87 CALM      30.23S
DETROIT CITY   CLOUDY    42  29  59 N8        30.22R
DETROIT        MOCLDY    43  30  60 NE6       30.21S
FLINT          CLOUDY    41  29  62 E6        30.23S
GROSSE ILE     CLOUDY    44  34  67 NE5       30.21S
HILLSDALE      CLEAR     32  30  90 CALM      30.20R
HOWELL         PTCLDY    39  30  71 CALM      30.21S

CITY           SKY/WX    TMP DP  RH WIND       PRES   REMARKS
JACKSON        CLEAR     40  29  64 N3        30.21R
LAMBERTVILLE   CLEAR     35  32  90 CALM      30.21S
LANSING        PTCLDY    38  29  70 N3        30.23R
LAPEER         CLOUDY    37  33  88 CALM      30.24R
MASON          CLEAR     38  32  76 CALM      30.22S
MONROE         PTCLDY    34  33  94 CALM      30.20S
MT. CLEMENS    PTCLDY    37  33  84 N5        30.21S WCI  34
PONTIAC        PTCLDY    38  26  62 N6        30.21R WCI  33
PORT HURON     CLEAR     37  30  75 NW3       30.23S
TRI CITIES     MOCLDY    41  29  62 S3        30.24S
MIDLAND        FAIR      36  33  88 CALM      30.23S
TROY           CLEAR     42  30  62 N5        30.24S
SAGINAW HB     PTCLDY    41  32  70 CALM      30.24R
$$
MIZ043>046-050>051-056>058-064>065-071>073-077>080-250200-
SOUTHWEST LOWER MICHIGAN

CITY           SKY/WX    TMP DP  RH WIND       PRES   REMARKS
BATTLE CREEK   MOCLDY    41  30  65 NE5       30.22R
BENTON HARBOR  CLOUDY    43  34  70 E5        30.22S
BIG RAPIDS     CLOUDY    38  31  76 NW3       30.23R
COLDWATER      CLEAR     38  30  73 CALM      30.21R
FREMONT        MOCLDY    37  30  78 N3        30.24R
HOLLAND        PTCLDY    38  29  70 NE3       30.24S
GRAND RAPIDS   PTCLDY    39  31  72 NW7       30.23R WCI  34
KALAMAZOO      MOCLDY    42  30  62 N7        30.22R
LUDINGTON      CLOUDY    37  32  83 CALM      30.24S
MARSHALL       MOCLDY    40  30  69 CALM      30.21S
MOUNT PLEASANT CLOUDY    38  34  84 CALM      30.23R
MUSKEGON       MOCLDY    39  27  62 N6        30.25S WCI  35
SOUTH HAVEN    PTCLDY    38  32  81 NE5       30.23S WCI  34
$$
MIZ016>042-250200-
NORTHERN LOWER MICHIGAN

CITY           SKY/WX    TMP DP  RH WIND       PRES   REMARKS
ALPENA         CLOUDY    36  34  92 CALM      30.24R
BEAVER ISLAND  CLOUDY    37  28  69 NW8       30.24R WCI  31
BELLAIRE       CLOUDY    37  34  89 CALM      30.24S
CADILLAC       MOCLDY    35  31  85 CALM      30.21R
CHARLEVOIX     CLOUDY    37  34  90 CALM      30.23S
FRANKFORT      MOCLDY    38  28  68 CALM      30.24R
GAYLORD        MOCLDY    32  31  96 CALM      30.21R
GRAYLING       MOCLDY    31  30  96 NW3       30.21F
HARBOR SPRINGS CLOUDY    33  33  99 CALM      30.23R
HOUGHTON LAKE  MOCLDY    36  29  75 NW5       30.23R WCI  32
MANISTEE       CLOUDY    36  33  89 CALM      30.24S
OSCODA         CLOUDY    37  33  86 CALM      30.23S
PELLSTON       CLOUDY    35  33  92 CALM      30.24R
ROGERS CITY    CLOUDY    36  32  86 SW3       30.25R
TRAVERSE CITY  CLOUDY    38  31  76 CALM      30.23R
$$
MIZ007>008-015-250200-
EASTERN UPPER MICHIGAN

CITY           SKY/WX    TMP DP  RH WIND       PRES   REMARKS
KINROSS        CLOUDY    33  30  88 NW5       30.23R WCI  29
MACKINAC ISLAN CLOUDY    35  35 100 CALM      30.22S
NEWBERRY       CLOUDY    34  30  85 W5        30.22R WCI  30
S. S. MARIE    CLOUDY    34  32  92 CALM      30.22R
MUNISING         N/A     32  22  66 SW5       30.24R WCI  27
$$
MIZ004>006-011>014-085-250200-
CENTRAL UPPER MICHIGAN

CITY           SKY/WX    TMP DP  RH WIND       PRES   REMARKS
MANISTIQUE     MOCLDY    31  23  72 W5        30.25R WCI  26
ESCANABA       MOCLDY    30  24  78 W5        30.27S WCI  25
MENOMINEE      MOCLDY    32  20  61 N5        30.29S WCI  27
SAWYER-GWINN   CLOUDY    27  23  86 W6        30.23R WCI  20
$$
MIZ001>003-009>011-084-250200-
WESTERN UPPER MICHIGAN

CITY           SKY/WX    TMP DP  RH WIND       PRES   REMARKS
IRON MOUNTAIN  MOCLDY    29  20  69 NW6       30.24S WCI  23
HOUGHTON       CLOUDY    31  26  82 S3        30.22R
COPPER HARBOR    N/A     35  30  82 NE8       30.23R WCI  29
IRONWOOD       FLURRIES  27  23  85 W7        30.27R WCI  19
$$

ABBREVIATIONS USED IN REMARKS
   TC - TEMPERATURE IN CELSIUS
  WCI - WIND CHILL INDEX
   HX - HEAT INDEX
  VSB - VISIBILITY




USA.gov is the U.S. government's official web portal to all federal, state and local government web resources and services.